FW3284 Weather Reports


Display with metric or nautical units.
time (UTC)temp
F
wind
direction
speed
MPH
gust
MPH
rain 1hr
in
rain 24hr
in
rain mn
in
humidity
%
barometer
mb
20260508183038 72 300 3.0 11.0 0.00 0.00 0.00 51 1010.2
20260508181535 73 217 0.0 10.0 0.00 0.00 0.00 51 1010.4
20260508180108 72 210 2.0 9.0 0.00 0.00 0.00 50 1010.6
20260508174530 72 130 4.0 10.0 0.00 0.00 0.00 48 1010.9
20260508173008 71 222 2.0 9.0 0.00 0.00 0.00 51 1011.1
20260508171549 72 271 3.0 10.0 0.00 0.00 0.00 52 1011.4
20260508170031 70 199 5.0 15.0 0.00 0.00 0.00 51 1011.7
20260508164525 70 225 1.0 12.0 0.00 0.00 0.00 57 1012.0
20260508163049 70 236 2.0 11.0 0.00 0.00 0.00 55 1012.1
20260508161536 68 214 6.0 14.0 0.00 0.00 0.00 56 1012.2
20260508160028 67 226 0.0 13.0 0.00 0.00 0.00 58 1012.5
20260508154556 66 210 3.0 11.0 0.00 0.00 0.00 59 1012.6
20260508153032 65 262 4.0 13.0 0.00 0.00 0.00 60 1012.8
20260508151512 64 210 3.0 10.0 0.00 0.00 0.00 62 1013.0
20260508150049 63 238 2.0 11.0 0.00 0.00 0.00 63 1013.1
20260508144527 62 197 3.0 11.0 0.00 0.00 0.00 63 1013.1
20260508143007 62 158 3.0 13.0 0.00 0.00 0.00 62 1013.3
20260508141552 62 239 3.0 14.0 0.00 0.00 0.00 63 1013.4
20260508140025 61 241 5.0 14.0 0.00 0.00 0.00 64 1013.4
20260508134508 60 212 6.0 14.0 0.00 0.00 0.00 65 1013.3
20260508133049 59 243 3.0 12.0 0.00 0.00 0.00 65 1013.3
20260508131523 59 168 3.0 11.0 0.00 0.00 0.00 66 1013.3
20260508130003 57 225 3.0 11.0 0.00 0.00 0.00 67 1013.3
20260508124541 56 238 5.0 11.0 0.00 0.00 0.00 68 1013.2
20260508123020 55 215 2.0 9.0 0.00 0.00 0.00 70 1013.1
20260508121611 54 171 0.0 6.0 0.00 0.00 0.00 72 1013.0
20260508121504 54 219 0.0 6.0 0.00 0.00 0.00 72 1012.9
20260508120039 53 191 1.0 8.0 0.00 0.00 0.00 72 1013.0
20260508114517 53 143 0.0 8.0 0.00 0.00 0.00 72 1013.1
20260508113058 53 230 1.0 7.0 0.00 0.00 0.00 72 1013.0
20260508111548 53 175 2.0 8.0 0.00 0.00 0.00 71 1013.0
20260508110015 53 236 0.0 8.0 0.00 0.00 0.00 70 1012.9
20260508104554 53 146 0.0 6.0 0.00 0.00 0.00 71 1012.8
20260508103047 53 221 0.0 7.0 0.00 0.00 0.00 71 1012.7
20260508101518 52 219 0.0 9.0 0.00 0.00 0.00 72 1012.8
20260508100100 52 225 1.0 7.0 0.00 0.00 0.00 73 1012.9
20260508100001 52 191 1.0 6.0 0.00 0.00 0.00 73 1012.9
20260508094600 52 179 0.0 5.0 0.00 0.00 0.00 74 1013.0
20260508093018 52 200 1.0 5.0 0.00 0.00 0.00 74 1013.1
20260508091559 51 207 0.0 2.0 0.00 0.00 0.00 74 1013.1
20260508091501 51 212 0.0 2.0 0.00 0.00 0.00 74 1013.1
20260508090038 52 157 0.0 5.0 0.00 0.00 0.00 73 1013.0
20260508084517 52 148 1.0 6.0 0.00 0.00 0.00 72 1013.2
20260508083125 52 117 0.0 5.0 0.00 0.00 0.00 72 1013.3
20260508083001 52 203 0.0 5.0 0.00 0.00 0.00 72 1013.3
20260508081543 52 193 0.0 6.0 0.00 0.00 0.00 72 1013.3
20260508080022 52 192 0.0 4.0 0.00 0.00 0.00 71 1013.3
20260508074555 52 304 0.0 6.0 0.00 0.00 0.00 72 1013.3
20260508073040 52 140 0.0 4.0 0.00 0.00 0.00 72 1013.7
20260508071521 52 107 0.0 3.0 0.00 0.00 0.00 72 1013.9
20260508070056 51 203 0.0 6.0 0.00 0.00 0.00 72 1013.9
20260508064544 52 167 0.0 3.0 0.00 0.00 0.00 72 1014.1
20260508063020 52 115 0.0 2.0 0.00 0.00 0.00 72 1014.2
20260508061554 52 184 0.0 0.0 0.00 0.00 0.00 72 1014.4
20260508060027 52 198 0.0 0.0 0.00 0.00 0.00 71 1014.5
20260508054515 52 182 0.0 4.0 0.00 0.00 0.00 70 1014.5
20260508053048 53 176 0.0 3.0 0.00 0.00 0.00 69 1014.5
20260508051528 52 174 0.0 3.0 0.00 0.00 0.00 70 1014.5
20260508050054 52 214 0.0 0.0 0.00 0.00 0.00 70 1014.5
20260508044536 52 162 0.0 0.0 0.00 0.00 0.00 71 1014.7
20260508043020 52 162 0.0 0.0 0.00 0.00 0.00 71 1014.9
20260508041559 53 162 0.0 0.0 0.00 0.00 0.00 68 1015.2
20260508041502 53 162 0.0 0.0 0.00 0.00 0.00 68 1015.2
20260508040040 54 178 0.0 1.0 0.00 0.00 0.00 65 1015.4
20260508034516 55 171 0.0 3.0 0.00 0.00 0.00 65 1015.5
20260508033052 55 179 0.0 2.0 0.00 0.00 0.00 64 1015.5
20260508031540 55 184 0.0 0.0 0.00 0.00 0.00 62 1015.5
20260508030024 56 183 0.0 3.0 0.00 0.00 0.00 62 1015.3
20260508024506 56 183 0.0 2.0 0.00 0.00 0.00 62 1015.2
20260508023049 57 195 0.0 0.0 0.00 0.00 0.00 61 1014.9
20260508021531 57 192 0.0 3.0 0.00 0.00 0.00 59 1014.5
20260508020015 58 205 0.0 0.0 0.00 0.00 0.00 57 1014.4
20260508014556 59 187 0.0 0.0 0.00 0.00 0.00 55 1014.4
20260508013044 60 212 0.0 0.0 0.00 0.00 0.00 55 1014.4
20260508011520 60 212 0.0 1.0 0.00 0.00 0.00 54 1014.2
20260508010059 61 180 0.0 2.0 0.00 0.00 0.00 52 1014.1
20260508010003 61 180 0.0 2.0 0.00 0.00 0.00 52 1014.1
20260508004545 62 218 0.0 3.0 0.00 0.00 0.00 51 1013.9
20260508003051 63 214 1.0 6.0 0.00 0.00 0.00 50 1013.9
20260508001513 64 210 0.0 4.0 0.00 0.00 0.00 48 1013.8
20260508000047 64 252 3.0 6.0 0.00 0.00 0.00 47 1013.9
20260507234530 64 257 0.0 2.0 0.00 0.00 0.00 45 1014.0
20260507233008 64 195 5.0 10.0 0.00 0.00 0.00 45 1014.1
20260507231554 65 216 3.0 7.0 0.00 0.00 0.00 45 1014.2
20260507230033 65 262 0.0 2.0 0.00 0.00 0.00 45 1014.4
20260507224518 66 217 0.0 8.0 0.00 0.00 0.00 44 1014.5
20260507223004 65 239 2.0 10.0 0.00 0.00 0.00 43 1014.7
20260507221542 65 224 0.0 5.0 0.00 0.00 0.00 45 1014.9
20260507220015 66 263 6.0 12.0 0.00 0.00 0.00 42 1014.8
20260507214559 66 265 0.0 8.0 0.00 0.00 0.00 43 1014.9
20260507213041 65 250 4.0 13.0 0.00 0.00 0.00 43 1014.9
20260507211520 66 215 6.0 12.0 0.00 0.00 0.00 39 1015.1
20260507210005 67 194 3.0 10.0 0.00 0.00 0.00 39 1015.2
20260507204543 66 186 1.0 10.0 0.00 0.00 0.00 37 1015.5
20260507203024 65 255 0.0 14.0 0.00 0.00 0.00 40 1015.8
20260507201508 65 238 0.0 10.0 0.00 0.00 0.00 39 1016.0
20260507200051 65 250 0.0 5.0 0.00 0.00 0.00 39 1016.2
20260507194528 66 228 0.0 2.0 0.00 0.00 0.00 37 1016.4
20260507193006 65 264 3.0 7.0 0.00 0.00 0.00 39 1016.6
20260507191552 64 233 0.0 10.0 0.00 0.00 0.00 43 1016.8
20260507190032 63 224 1.0 9.0 0.00 0.00 0.00 40 1016.9
20260507184513 63 248 0.0 6.0 0.00 0.00 0.00 40 1016.8